(44) Nysa
ephemeris date magn radius delta ra dec elong phase
Today26 Aug 202611.82.298 AU3.130 AU12h08m+01°42'28.9°12.3°
Opposition15 Jun 202710.32.715 AU1.701 AU17h34m-18°55'175.6°1.6°
(44) Nysa - 2026-08-26
astro.vanbuitenen.nl


 
-1 year
-1 month
-1 day
Now
+1 day
+1 month
+1 year

The interactive orbit chart above shows the body's path through the solar system and its position at the given date. Green and blue lines are shown perpendicular to the ecliptic plane: Green if the path is above the ecliptic plane, blue if it is below. (Left-click and drag to rotate the view; Right-click and drag to move the view; Use scroll wheel to zoom in our out.)

The orbital elements of Nysa are:

            e (Eccentricity)                : 0.1496735
            a (Semimajor axis)              : 2.4224996
            i (Inclination)                 : 3.71314
            Ω (Longitude of ascending node) : 131.47624
            ω (Argument of perihelion)      : 343.89309
            M (Mean anomaly)                : 41.45746
            Epoch                           : 2026 Jun 09

            L (Longitude of perihelion)     : 115.40139
            B (Latitude of perihelion)      : -1.02947
            P (Orbital period in years)     : 3.77            
        

The light curve chart below shows the estimated development of the minor planet's magnitude.


The all-sky chart below shows the path of the minor planet over the same period as the light curve. The current position is marked yellow.





The following chart shows the path of the minor planet in the next few days. The field of view is optimized for (~10x50) binoculars and finderscopes.




Ephemerides:
Date       Time       RA (2000)    DEC (2000)    delta   radius  elong  phase   PA    magn
2026-08-26 00:00 UT   12 08 25.5   +01 42 40     3.130    2.298   28.9   12.3   109   11.8 
2026-08-26 18:49 UT   12 09 49.8   +01 33 39     3.136    2.299   28.5   12.1   109   11.8 
2026-08-27 00:00 UT   12 10 13.0   +01 31 11     3.137    2.300   28.4   12.1   109   11.8 
2026-08-28 00:00 UT   12 12 00.6   +01 19 42     3.144    2.301   28.0   11.9   109   11.8 
2026-08-29 00:00 UT   12 13 48.1   +01 08 13     3.151    2.303   27.5   11.7   109   11.8 
2026-08-30 00:00 UT   12 15 35.7   +00 56 45     3.158    2.304   27.0   11.5   109   11.8 
2026-08-31 00:00 UT   12 17 23.3   +00 45 17     3.165    2.306   26.5   11.3   109   11.8 
2026-09-01 00:00 UT   12 19 11.0   +00 33 49     3.171    2.308   26.1   11.1   108   11.8 
2026-09-02 00:00 UT   12 20 58.6   +00 22 22     3.178    2.309   25.6   10.9   108   11.8 
2026-09-03 00:00 UT   12 22 46.3   +00 10 54     3.185    2.311   25.1   10.7   108   11.8 
2026-09-04 00:00 UT   12 24 34.0   +00 00 32     3.191    2.313   24.6   10.5   108   11.8 
2026-09-05 00:00 UT   12 26 21.8   +00 11 59     3.197    2.314   24.2   10.3   108   11.8 
2026-09-06 00:00 UT   12 28 09.6   +00 23 24     3.204    2.316   23.7   10.1   108   11.8 
2026-09-07 00:00 UT   12 29 57.4   +00 34 49     3.210    2.318   23.2    9.9   108   11.7 
2026-09-08 00:00 UT   12 31 45.2   +00 46 14     3.216    2.319   22.7    9.7   107   11.7 
2026-09-09 00:00 UT   12 33 33.1   +00 57 37     3.222    2.321   22.2    9.5   107   11.7 
2026-09-10 00:00 UT   12 35 21.0   -01 09 00     3.228    2.323   21.8    9.2   107   11.7 
2026-09-11 00:00 UT   12 37 08.9   -01 20 22     3.234    2.324   21.3    9.0   107   11.7 
2026-09-12 00:00 UT   12 38 56.9   -01 31 44     3.239    2.326   20.8    8.8   107   11.7 


    Terminology:
            
    delta:  distance between minor planet and earth in AU
    radius: distance between minor planet and sun in AU
    magn:   magnitude (brightness) estimate    
    ra:     right ascension in hours (24h = 360deg)
    dec:    declination in degrees
    elong:  elongation in degrees (angle sun-earth-minor planet)    
    phase:  phase angle in degrees (angle sun-minor planet-earth)        
    AU:     Astronomical Unit (mean distance between earth and sun: 149597870.7 km
    

Orbital elements provided by the MPC (Minor Planet Center).
Calculations by a modified version of AAPlus, a C# implementation of the AA+ project by PJ Naughter from the algorithms presented in the book "Astronomical Algorithms" by Jean Meeus.
NGC2000 dso catalog and star labels from VizieR as provided by the Strasbourg astronomical Data Center.
Tycho2 catalog from the ESO archive.